Tracking 28790 objects as of 19-Apr-2024
HD Live streaming from Space Station
objects crossing your sky now

ARIANE 1 DEB

Track ARIANE 1 DEB now!
10-day predictions


NORAD ID: 25766
Int'l Code: 1979-104H
Perigee: 539.7 km
Apogee: 19,964.9 km
Inclination: 20.6 °
Period: 355.5 minutes
Semi major axis: 16623 km
RCS: 0.1131 m2 (medium)
Launch date: December 24, 1979
Source: European Space Agency (ESA)
Launch site: FRENCH GUIANA (FRGUI)

Note: This is SATELLITE DEBRIS
Your satellite tracking list
Your tracking list is empty




NASA's NSSDC Master Catalog

Two Line Element Set (TLE):
1 25766U 79104H   24109.14599061  .00004566  00000-0  15186-1 0  9991
2 25766  20.5941 106.9965 5842785  44.8369 349.7434  4.05067873 12645
Source of the keplerian elements: AFSPC